     2.10           OBSERVATION DATA    G (GPS)             RINEX VERSION / TYPE
teqc 2002Apr3 Duncan Agnew 20050511 23:58:27UTC             PGM / RUN BY / DATE
OSX 5.3|G3|cc|OSX 5.3+|G3+                                  COMMENT
BIT 2 OF LLI FLAGS DATA COLLECTED UNDER A/S CONDITION       COMMENT
IVPN 110                                                    MARKER NAME
6893                                                        MARKER NUMBER
Alex Espinoza Nolte Engineering                             OBSERVER / AGENCY
220136893 TRIMBLE 4800 NP 1.20 / SP 1.43                    REC # / TYPE / VERS
N/A TRM4800                                                 ANT # / TYPE
 -2320323.0000 -4826569.0000  3452515.0000                  APPROX POSITION XYZ
        2.0000        0.0000        0.0000                  ANTENNA: DELTA H/E/N
     1     1                                                WAVELENGTH FACT L1/2
     7    C1    L1    L2    P1    P2    S1    S2            # / TYPES OF OBSERV
SNR is mapped to RINEX snr flag value [1-9]                 COMMENT
L1: 3 -> 1; 8 -> 5; 40 -> 9                                 COMMENT
L2: 1 -> 1; 5 -> 5; 60 -> 9                                 COMMENT
  2004     7     1    19    49    0.0000000     GPS         TIME OF FIRST OBS
                                                            END OF HEADER
 04  7  1 19 49  0.0000000  0  6G11G14G15G19G22G25
  22855714.5724    -111627.82859    -72326.46557                  22855710.6684
        48.0004         32.2504
  21071919.9734      53919.23059     34917.98858                  21071916.5614
        48.7504         41.5004
  22218037.5544     118422.21159     76505.78457                  22218035.9834
        48.5004         34.0004
  23541906.5704      62525.92659     41313.56557                  23541903.4984
        44.5004         30.7504
  22358542.1734      50430.90259     32626.58857                  22358538.1064
        46.5004         36.5004
  21408198.9564    -103006.93059    -66650.23558                  21408196.4074
        48.5004         40.2504
 04  7  1 19 49 10.0000000  0  6G11G14G15G19G22G25
  22850290.4424    -140132.60249    -94537.94847                  22850286.5444
        48.5004         32.7504
  21074422.0284      67068.10549     45163.86648                  21074418.6354
        48.7504         42.5004
  22223617.0094     147741.66049     99352.09147                  22223615.6714
        48.2504         34.0004
  23544826.3904      77871.30949     53270.99647                  23544823.6844
        45.0004         30.5004
  22360872.9954      62680.51249     42171.71947                  22360869.4314
        46.5004         36.5004
  21403165.6104    -129456.02349    -87259.91048                  21403163.7154
        47.7504         40.2504
 04  7  1 19 49 20.0000000  0  6G11G14G15G19G22G25
  22844844.1914    -168752.66849   -116839.30247                  22844839.8004
        48.2504         32.7504
  21076898.9714      80087.24249     55308.64248                  21076895.8034
        49.5004         42.0004
  22229173.3904     176939.90649    122103.93847                  22229171.4184
        48.7504         33.7504
  23547723.6934      93093.51649     65132.42147                  23547720.9704
        45.5004         30.5004
  22363178.7224      74794.04349     51610.81947                  22363174.9024
        48.5004         35.7504
  21398111.7904    -156014.15649   -107954.55148                  21398109.7824
        48.5004         40.7504
 04  7  1 19 49 30.0000000  0  6G11G14G15G19G22G25
  22839380.9074    -197458.48049   -139207.45147                  22839377.5004
        47.7504         32.7504
  21079357.5534      93006.06349     65375.24648                  21079354.1924
        49.5004         42.2504
  22234712.1274     206046.31349    144784.23947                  22234710.5434
        48.5004         34.7504
  23550602.6224     108221.89849     76920.73647                  23550599.7104
        45.0004         31.2504
  22365463.3024      86801.02749     60966.88547                  22365459.6464
        48.7504         36.0004
  21393042.5604    -182651.76649   -128711.11348                  21393040.3534
        49.0004         41.0004
 04  7  1 19 49 40.0000000  0  6G11G14G15G19G22G25
  22833907.0384    -226224.51649   -161622.57347                  22833903.4674
        48.0004         33.0004
  21081801.7734     105850.01249     75383.50648                  21081798.4584
        49.2504         42.0004
  22240238.1064     235086.27349    167412.74147                  22240236.9554
        48.5004         34.0004
  23553467.9114     123281.87949     88655.76547                  23553465.5934
        45.5004         30.5004
  22367732.5754      98726.96549     70259.79547                  22367728.9354
        46.7504         36.0004
  21387963.5554    -209343.29749   -149509.69248                  21387961.5114
        48.7504         40.5004
 04  7  1 19 49 50.0000000  0  6G11G14G15G19G22G25
  22828424.8754    -255036.23049   -184073.22547                  22828420.3404
        48.0004         32.0004
  21084234.7134     118633.35949     85344.55248                  21084231.3564
        49.0004         41.7504
  22245754.8324     264074.07449    190000.61847                  22245752.9974
        48.5004         34.2504
  23556323.4654     138287.69149    100348.58047                  23556320.5434
        45.5004         31.2504
  22369989.5424     110586.31649     79500.83547                  22369985.6564
        47.5004         35.7504
  21382877.1034    -236074.27049   -170339.01748                  21382874.9984
        48.2504         40.5004
 04  7  1 19 50  0.0000000  0  6G11G14G15G19G22G25
  22822935.3364    -283882.69549   -206550.97747                  22822931.4224
        47.7504         32.7504
  21086657.4534     131366.94949     95266.81248                  21086654.4644
        49.7504         41.2504
  22251262.7454     293020.58249    212556.30247                  22251261.4824
        48.0004         34.0004
  23559171.1394     153250.18449    112007.65547                  23559168.0204
        45.5004         30.7504
  22372235.9744     122389.94949     88698.46447                  22372231.7524
        48.2504         35.7504
  21377784.7384    -262833.64549   -191190.46148                  21377782.5614
        49.2504         40.5004
 04  7  1 19 50 10.0000000  0  6G11G14G15G19G22G25
  22817440.3134    -312758.81649   -229051.85547                  22817436.6094
        47.5004         32.7504
  21089071.8294     144055.64849    105154.12348                  21089069.2524
        49.0004         40.7504
  22256764.2464     321930.68849    235083.63047                  22256762.7614
        48.0004         33.2504
  23562011.4934     168174.20349    123636.71447                  23562007.9454
        45.7504         29.7504
  22374472.3214     134142.89149     97856.57847                  22374467.9754
        48.2504         36.0004
  21372688.3934    -289616.39549   -212060.11748                  21372686.0464
        49.0004         39.7504
 04  7  1 19 50 20.0000000  0  6G11G14G15G19G22G25
  22811940.5464    -341660.14549   -251572.36247                  22811936.8204
        48.0004         32.7504
  21091479.0864     156703.71949    115009.74848                  21091475.5354
        50.0004         42.0004
  22262259.8774     350808.57849    257585.85347                  22262258.4194
        48.2504         33.7504
  23564843.8324     183063.96949    135239.10947                  23564841.0304
        45.5004         31.2504
  22376700.1934     145849.35549    106978.48447                  22376696.2164
        48.5004         36.0004
  21367588.0744    -316418.10949   -232944.57348                  21367585.6534
        49.0004         40.7504
 04  7  1 19 50 30.0000000  0  6G11G14G15G19G22G25
  22806436.5934    -370583.21149   -274109.79647                  22806432.8094
        48.0004         32.2504
  21093878.7064     169314.60249    124836.41348                  21093875.2224
        50.0004         42.2504
  22267749.6734     379657.65649    280065.64547                  22267748.2424
        48.0004         33.0004
  23567672.0174     197922.80149    146817.41347                  23567669.1064
        45.5004         30.7504
  22378919.4984     157512.87949    116066.92447                  22378915.3744
        48.7504         36.5004
  21362484.8524    -343235.21549   -253840.99248                  21362482.3454
        49.0004         41.0004
 04  7  1 19 50 40.0000000  0  6G11G14G15G19G22G25
  22800929.1834    -399526.12949   -296662.70347                  22800924.8774
        47.0004         33.0004
  21096271.8554     181889.99249    134635.39948                  21096268.3714
        50.0004         42.5004
  22273234.0104     408479.61349    302524.27747                  22273232.5494
        48.5004         33.7504
  23570493.4884     212752.42249    158372.93347                  23570491.1604
        45.0004         31.2504
  22381131.4644     169135.30949    125123.36247                  22381127.2114
        47.7504         36.5004
  21357379.0414    -370065.84849   -274747.98148                  21357376.9034
        49.7504         41.2504
 04  7  1 19 50 50.0000000  0  6G11G14G15G19G22G25
  22795417.4414    -428489.57449   -319231.64147                  22795413.4644
        47.0004         33.2504
  21098657.5994     194429.10549    144406.13548                  21098654.5594
        49.7504         41.7504
  22278713.1324     437273.69949    324961.21447                  22278711.5914
        48.0004         33.5004
  23573310.4694     227551.99249    169905.03547                  23573307.0154
        45.0004         31.0004
  22383334.8094     180715.89549    134147.17347                  22383330.8894
        47.2504         36.5004
  21352270.5344    -396910.68749   -295666.01648                  21352268.4944
        49.7504         41.0004
 04  7  1 19 51  0.0000000  0  6G11G14G15G19G22G25
  22789902.5564    -457469.33649   -341813.24447                  22789898.3354
        47.5004         32.5004
  21101037.9494     206935.99649    154151.75948                  21101034.3894
        49.2504         42.0004
  22284188.0474     466043.84449    347379.48447                  22284186.9834
        47.7504         33.0004
  23576121.7664     242325.52049    181416.86947                  23576118.8904
        43.7504         30.7504
  22385531.4204     192258.77349    143141.60647                  22385528.1164
        48.0004         36.0004
  21347160.1434    -423765.60549   -316591.91548                  21347157.9984
        48.2504         41.0004
 04  7  1 19 51 10.0000000  0  6G11G14G15G19G22G25
  22784385.3744    -486463.78549   -364406.33147                  22784381.2524
        47.5004         32.5004
  21103411.7504     219412.10949    163873.40148                  21103408.5784
        50.2504         42.0004
  22289658.7654     494791.54349    369780.25647                  22289657.3164
        48.0004         34.0004
  23578928.3234     257074.39549    192909.47347                  23578925.0474
        44.5004         31.0004
  22387720.9854     203765.53149    152107.89947                  22387717.4984
        48.5004         36.7504
  21342048.4084    -450628.93449   -337524.36648                  21342045.8734
        47.5004         41.0004
 04  7  1 19 51 20.0000000  0  6G11G14G15G19G22G25
  22778864.8634    -515473.51649   -387011.30947                  22778861.0114
        47.0004         32.2504
  21105780.1234     231856.64849    173570.43848                  21105776.6194
        49.5004         41.0004
  22295125.0364     523515.97349    392162.90647                  22295124.1794
        48.0004         33.7504
  23581729.9974     271797.81349    204382.24847                  23581726.8344
        45.0004         31.0004
  22389903.6434     215235.37949    161045.42247                  22389899.4374
        45.7504         36.2504
  21336934.7144    -477501.32449   -358463.87948                  21336932.2374
        48.5004         40.5004
 04  7  1 19 51 30.0000000  0  6G11G14G15G19G22G25
  22773341.8324    -544496.49649   -409626.60347                  22773338.0134
        47.2504         32.7504
  21108142.4794     244271.62949    183244.43648                  21108139.4024
        49.7504         42.0004
  22300587.0624     552219.10249    414528.96447                  22300585.7764
        48.5004         34.0004
  23584527.1454     286497.71549    215836.69747                  23584524.0194
        44.5004         31.0004
  22392080.1014     226670.42649    169955.82447                  22392076.0724
        48.0004         36.7504
  21331819.8394    -504380.70349   -379408.84448                  21331817.6934
        50.5004         41.2504
 04  7  1 19 51 40.0000000  0  6G11G14G15G19G22G25
  22767816.1964    -573532.70749   -432252.20247                  22767813.0744
        47.5004         32.7504
  21110499.5134     256656.81649    192895.23548                  21110495.8084
        50.2504         41.7504
  22306044.9254     580900.72349    436878.25047                  22306043.7224
        48.0004         33.2504
  23587320.4384     301173.84449    227272.61847                  23587317.3574
        45.0004         31.2504
  22394249.0194     238070.56649    178839.04347                  22394245.4834
        48.2504         36.5004
  21326703.2364    -531267.06649   -400359.24048                  21326701.3524
        51.0004         41.2504
 04  7  1 19 51 50.0000000  0  6G11G14G15G19G22G25
  22762288.8404    -602581.82449   -454887.87647                  22762284.8994
        47.2504         32.7504
  21112850.7644     269012.40249    202522.95048                  21112847.5754
        50.7504         42.2504
  22311499.0264     609560.92649    459210.86147                  22311497.3424
        48.0004         34.0004
  23590108.4144     315826.28549    238690.08747                  23590105.5524
        44.5004         31.5004
  22396412.0884     249436.07849    187695.26847                  22396408.1384
        48.0004         36.0004
  21321585.8164    -558160.12949   -421314.86248                  21321583.5864
        49.7504         41.5004
 04  7  1 19 52  0.0000000  0  6G11G14G15G19G22G25
  22756759.0344    -631639.34849   -477530.07747                  22756755.2844
        47.0004         32.7504
  21115197.1344     281342.72749    212130.99548                  21115193.8634
        50.5004         42.2504
  22316949.3424     638204.09449    481530.18447                  22316947.9594
        47.7504         34.5004
  23592893.0454     330459.38749    250092.48747                  23592890.5954
        45.0004         31.5004
  22398569.0794     260771.30949    196527.90547                  22398565.2944
        48.0004         36.0004
  21316467.6054    -585055.44949   -442272.23048                  21316465.7284
        48.5004         41.5004
 04  7  1 19 52 10.0000000  0  6G11G14G15G19G22G25
  22751228.8264    -660702.56649   -500176.75447                  22751225.1894
        46.5004         32.5004
  21117539.0744     293650.38749    221721.37448                  21117535.7094
        51.5004         41.7504
  22322397.0644     666832.77749    503838.21547                  22322396.3664
        48.0004         34.0004
  23595674.6444     345075.75849    261481.84147                  23595671.4484
        44.5004         31.0004
  22400720.6454     272079.03949    205339.09947                  22400716.7724
        48.0004         36.0004
  21311350.3584    -611950.18449   -463229.17148                  21311347.8004
        50.0004         41.0004
 04  7  1 19 52 20.0000000  0  6G11G14G15G19G22G25
  22745696.2884    -689775.77349   -522831.18147                  22745692.1574
        46.2504         32.5004
  21119875.7514     305930.87549    231290.57948                  21119872.2874
        50.7504         41.7504
  22327841.6304     695442.47349    526131.44047                  22327840.4314
        47.7504         34.0004
  23598451.9144     359670.85549    272854.61147                  23598448.8634
        45.0004         31.5004
  22402866.6504     283354.76649    214125.36347                  22402862.6014
        46.7504         36.2504
  21306231.5674    -638848.74249   -484189.06148                  21306229.4774
        52.0004         41.0004
 04  7  1 19 52 30.0000000  0  6G11G14G15G19G22G25
  22740161.4784    -718860.14149   -545494.32547                  22740157.8664
        47.2504         32.5004
  21122207.4634     318182.88749    240837.58948                  21122204.4374
        51.0004         40.7504
  22333282.2564     724031.86349    548408.87747                  22333280.7474
        48.0004         33.5004
  23601224.8194     374243.29349    284209.75747                  23601221.5324
        44.5004         31.5004
  22405005.9054     294597.27749    222885.75447                  22405002.0354
        47.2504         35.0004
  21301111.8814    -665752.32049   -505152.89048                  21301109.2504
        51.5004         40.5004
 04  7  1 19 52 40.0000000  0  6G11G14G15G19G22G25
  22734625.4784    -747951.92249   -568163.21147                  22734622.1394
        47.7504         33.0004
  21124534.3944     330410.16049    250365.32948                  21124531.3864
        51.0004         41.2504
  22338719.5354     752604.65649    570673.36747                  22338718.4614
        48.0004         34.0004
  23603994.4284     388796.79349    295550.10947                  23603991.4694
        45.5004         30.7504
  22407139.6624     305810.36349    231623.19547                  22407135.7864
        48.5004         35.7504
  21295991.9334    -692657.08649   -526117.62948                  21295989.5914
        51.5004         41.0004
 04  7  1 19 52 50.0000000  0  6G11G14G15G19G22G25
  22729087.2364    -777056.00449   -590841.73647                  22729083.6814
        45.7504         32.5004
  21126855.2234     342607.62149    259869.83848                  21126852.1684
        50.0004         41.7504
  22344152.3854     781155.75849    592920.96247                  22344151.0924
        48.5004         34.5004
  23606759.3444     403326.19549    306871.70747                  23606756.2424
        45.2504         31.0004
  22409266.9864     316989.13749    240333.92447                  22409262.9484
        45.7504         36.0004
  21290870.9424    -719567.84849   -547087.04848                  21290869.1324
        51.0004         41.0004
 04  7  1 19 53  0.0000000  0  6G11G14G15G19G22G25
  22723548.0074    -806164.26249   -613523.48147                  22723544.2964
        47.2504         33.2504
  21129172.3854     354783.09849    269357.22248                  21129168.7804
        51.0004         42.5004
  22349583.1184     809692.96949    615157.70147                  22349581.7754
        47.2504         34.5004
  23609520.9024     417839.33249    318180.61847                  23609518.2154
        45.0004         31.5004
  22411388.9084     328141.45749    249024.00847                  22411385.0654
        48.2504         36.0004
  21285750.6214    -746476.66449   -568054.94148                  21285748.0574
        49.7504         41.0004
 04  7  1 19 53 10.0000000  0  6G11G14G15G19G22G25
  22718007.3404    -835281.40249   -636212.15347                  22718003.3554
        47.2504         32.5004
  21131484.0364     366931.76249    278823.69948                  21131480.9254
        50.2504         42.0004
  22355009.4014     838211.49649    637379.90447                  22355008.7594
        48.0004         34.5004
  23612278.9254     432331.32849    329473.07247                  23612276.1764
        44.5004         31.0004
  22413505.8324     339262.60249    257689.83647                  22413501.3094
        47.2504         35.5004
  21280628.9514    -773388.14849   -589024.91548                  21280626.9044
        51.5004         41.0004
 04  7  1 19 53 20.0000000  0  6G11G14G15G19G22G25
  22712465.4464    -864404.31649   -658905.33247                  22712461.5224
        47.5004         33.0004
  21133791.4224     379056.60549    288271.62048                  21133788.1034
        50.7504         42.0004
  22360433.8684     866714.27749    659589.83647                  22360433.0574
        48.2504         34.2504
  23615032.9914     446805.11349    340751.30647                  23615030.5354
        45.0004         31.5004
  22415616.8664     350355.66049    266333.74947                  22415612.5534
        47.5004         36.0004
  21275508.5914    -800299.24249   -609994.59148                  21275506.0084
        51.5004         41.0004
 04  7  1 19 53 30.0000000  0  6G11G14G15G19G22G25
  22706923.3414    -893529.07049   -681599.92147                  22706919.1304
        47.2504         33.0004
  21136094.7184     391161.44549    297703.96048                  21136091.3254
        50.5004         41.2504
  22365855.1924     895205.05149    681790.43447                  22365854.5414
        48.5004         34.0004
  23617784.4114     461264.49649    352018.32847                  23617782.3064
        44.5004         31.2504
  22417722.7274     361424.48049    274958.79747                  22417718.2754
        48.0004         36.0004
  21270388.4074    -827206.08649   -630960.96448                  21270385.5964
        51.2504         40.7504
 04  7  1 19 53 40.0000000  0  6G11G14G15G19G22G25
  22701378.9814    -922663.86749   -704302.37047                  22701374.8794
        48.0004         32.5004
  21138392.8204     403237.97349    307114.24448                  21138389.5514
        50.5004         41.2504
  22371272.9744     923675.48449    703975.15447                  22371271.9244
        48.5004         33.5004
  23620531.8634     475701.04349    363267.59547                  23620529.1964
        44.0004         30.5004
  22419823.0284     372460.83649    283558.53947                  22419818.9874
        48.5004         36.0004
  21265267.1974    -854116.85549   -651930.36848                  21265264.6884
        50.5004         40.7504
 04  7  1 19 53 50.0000000  0  6G11G14G15G19G22G25
  22695833.3024    -951805.23049   -727009.91547                  22695829.2134
        48.2504         33.5004
  21140685.8784     415289.43849    316504.99948                  21140683.0594
        50.7504         41.5004
  22376687.7694     952128.88349    726146.59447                  22376686.1214
        48.5004         34.0004
  23623275.6414     490118.07049    374501.60047                  23623272.3084
        45.0004         31.0004
  22421917.7114     383468.07849    292135.59447                  22421913.5384
        49.0004         36.0004
  21260146.2224    -881028.00449   -672900.07348                  21260143.1294
        51.5004         41.5004
 04  7  1 19 54  0.0000000  0  6G11G14G15G19G22G25
  22690287.7114    -980948.03549   -749718.59347                  22690284.5224
        48.2504         32.5004
  21142976.0504     427320.83649    325880.09848                  21142972.5694
        51.0004         42.0004
  22382099.8974     980570.21149    748308.64747                  22382098.6854
        48.0004         34.5004
  23626015.5584     504520.51649    385724.27347                  23626013.3764
        44.5004         30.5004
  22424007.5554     394451.32049    300693.93147                  22424003.4904
        49.0004         36.0004
  21255026.3714    -907934.48849   -693866.16748                  21255023.4434
        52.0004         41.2504
 04  7  1 19 54 10.0000000  0  6G11G14G15G19G22G25
  22684742.1794   -1010089.39149   -772426.12047                  22684738.6924
        48.2504         32.7504
  21145261.7614     439334.87549    335241.67948                  21145258.6304
        51.0004         41.7504
  22387510.3454    1009002.10249    770463.36847                  22387509.0404
        48.5004         34.2504
  23628754.2504     518910.98049    396937.59747                  23628751.4204
        44.5004         30.5004
  22426093.4354     405413.27749    309235.71647                  22426089.0884
        49.0004         36.0004
  21249907.2684    -934833.39549   -714826.34448                  21249904.7424
        52.0004         41.7504
 04  7  1 19 54 20.0000000  0  6G11G14G15G19G22G25
  22679196.6344   -1039230.91449   -795133.79247                  22679192.9104
        48.2504         33.0004
  21147544.4034     451329.87549    344588.42048                  21147541.6724
        50.5004         41.7504
  22392917.9214    1037422.80949    792609.35447                  22392917.1824
        48.2504         34.5004
  23631490.1934     533287.71549    408140.23647                  23631487.4574
        44.7504         30.2504
  22428175.3044     416352.32049    317759.64347                  22428171.4764
        49.5004         36.2504
  21244789.7264    -961726.28549   -735781.83548                  21244787.1744
        51.2504         41.2504
 04  7  1 19 54 30.0000000  0  6G11G14G15G19G22G25
  22673650.2814   -1068377.51249   -817845.41647                  22673646.7634
        48.5004         33.5004
  21149822.3184     463300.75049    353916.38448                  21149819.2614
        50.7504         42.0004
  22398323.8294    1065827.19149    814742.60947                  22398323.0854
        47.5004         34.0004
  23634221.8764     547645.66449    419328.22447                  23634220.2684
        45.0004         30.5004
  22430251.6934     427263.47349    326261.79447                  22430247.3764
        49.5004         35.5004
  21239672.4594    -988618.21949   -756736.57548                  21239669.7474
        50.7504         41.7504
 04  7  1 19 54 40.0000000  0  6G11G14G15G19G22G25
  22668103.2734   -1097527.74249   -840559.89047                  22668099.6834
        48.2504         33.2504
  21152096.4894     475248.80149    363226.54948                  21152093.4224
        51.0004         42.0004
  22403726.1014    1094216.59449    836864.18947                  22403724.8824
        48.2504         33.7504
  23636951.2534     561986.03949    430502.51847                  23636948.7324
        45.0004         30.5004
  22432322.7934     438148.07849    334743.29947                  22432319.2844
        49.2504         36.2504
  21234555.5084   -1015507.68049   -777689.39248                  21234552.6834
        51.2504         41.5004
 04  7  1 19 54 50.0000000  0  6G11G14G15G19G22G25
  22662556.4014   -1126676.68049   -863273.32347                  22662552.7994
        48.7504         33.0004
  21154366.1234     487178.78949    372522.63648                  21154362.8714
        51.0004         41.7504
  22409126.3704    1122595.80549    858977.84547                  22409124.9444
        47.5004         33.2504
  23639678.0754     576313.63749    441666.86547                  23639675.4214
        45.0004         30.0004
  22434390.3434     449011.14849    343208.02047                  22434386.4584
        49.7504         36.0004
  21229439.9664   -1042389.76649   -798636.46148                  21229437.4664
        51.0004         41.2504
 04  7  1 19 55  0.0000000  0  6G11G14G15G19G22G25
  22657009.3324   -1155824.69149   -885986.09347                  22657005.9054
        48.5004         33.2504
  21156633.0464     499090.09849    381804.16348                  21156629.9624
        50.5004         41.7504
  22414524.7374    1150964.24649    881083.08747                  22414523.3934
        48.0004         32.2504
  23642401.7394     590627.89849    452820.78747                  23642399.2894
        44.2504         29.7504
  22436453.1434     459852.12549    351655.47947                  22436449.3144
        49.2504         36.0004
  21224325.8384   -1069264.85249   -819578.08048                  21224323.4544
        51.0004         41.0004
 04  7  1 19 55 10.0000000  0  6G11G14G15G19G22G25
  22651463.2024   -1184971.42649   -908697.78547                  22651460.0904
        48.5004         33.5004
  21158896.0634     510982.99649    391071.35548                  21158892.9034
        50.2504         41.7504
  22419921.0904    1179322.12549    903180.12347                  22419920.3104
        46.7504         33.7504
  23645123.5584     604928.94949    463964.45547                  23645121.3984
        44.7504         30.7504
  22438512.0224     470671.32449    360086.03947                  22438507.7894
        48.5004         36.5004
  21219213.1264   -1096132.69149   -840514.04748                  21219210.5744
        51.7504         40.7504
 04  7  1 19 55 20.0000000  0  6G11G14G15G19G22G25
  22645917.2614   -1214115.87949   -931407.74147                  22645913.7854
        48.2504         34.0004
  21161155.8154     522858.45749    400324.96348                  21161152.9594
        50.2504         41.2504
  22425315.5954    1207670.29349    925269.57447                  22425314.3044
        47.2504         34.0004
  23647842.0194     619217.63349    475098.47147                  23647839.3774
        44.5004         31.5004
  22440566.8914     481469.70749    368500.33547                  22440562.9314
        49.0004         36.5004
  21214101.8944   -1122992.12149   -861443.45148                  21214099.3984
        51.0004         40.5004
 04  7  1 19 55 30.0000000  0  6G11G14G15G19G22G25
  22640371.0224   -1243260.60949   -954117.90947                  22640367.8624
        48.5004         34.0004
  21163412.0214     534713.73449    409562.82048                  21163408.6894
        49.5004         42.0004
  22430707.7444    1236006.01649    947349.34747                  22430706.8634
        47.0004         33.2504
  23650558.5174     633491.22349    486220.73247                  23650555.9104
        45.0004         31.5004
  22442617.3594     492244.64549    376896.39347                  22442613.2704
        48.2504         36.5004
  21208991.6624   -1149845.71949   -882368.32948                  21208989.1774
        51.5004         41.5004
 04  7  1 19 55 40.0000000  0  6G11G14G15G19G22G25
  22634825.7484   -1272404.00049   -976827.03347                  22634821.9944
        48.0004         33.7504
  21165664.1904     546550.25849    418786.08748                  21165661.0134
        49.5004         41.2504
  22436097.8444    1264330.65649    969420.45247                  22436096.4374
        47.2504         31.5004
  23653271.6474     647751.17649    497332.38147                  23653269.9084
        44.7504         30.7504
  22444663.5354     502997.68849    385275.36847                  22444659.1444
        47.0004         36.0004
  21203882.8664   -1176691.93749   -903287.44448                  21203880.4824
        51.0004         41.2504
 04  7  1 19 55 50.0000000  0  6G11G14G15G19G22G25
  22629279.0874   -1301550.76249   -999538.78647                  22629275.0764
        48.0004         33.5004
  21167912.3094     558363.23449    427990.99948                  21167909.2124
        49.0004         41.5004
  22441484.1844    1292639.42649    991479.21547                  22441483.4924
        47.0004         31.7504
  23655982.1084     661992.55549    508429.51847                  23655979.6184
        44.5004         31.2504
  22446704.7354     513724.04749    393633.55647                  22446700.6104
        46.7504         36.0004
  21198774.8214   -1203535.43749   -924204.45348                  21198772.7954
        51.5004         41.0004
 04  7  1 19 56  0.0000000  0  6G11G14G15G19G22G25
  22623733.3424   -1330694.96149  -1022248.55747                  22623729.4804
        47.5004         32.7504
  21170157.0434     570158.41449    437182.04548                  21170153.8194
        48.0004         41.2504
  22446869.8764    1320938.12549   1013530.11047                  22446868.8104
        47.0004         32.0004
  23658689.3034     676221.09849    519516.68147                  23658687.3424
        45.2504         30.7504
  22448741.8834     524429.60249    401975.53447                  22448738.2224
        46.0004         36.0004
  21193668.2894   -1230370.28149   -945114.69248                  21193666.1754
        50.5004         41.2504
 04  7  1 19 56 10.0000000  0  6G11G14G15G19G22G25
  22618186.8514   -1359839.60549  -1044958.68347                  22618183.2194
        47.5004         33.2504
  21172397.6234     581932.59849    446356.72948                  21172394.0274
        50.0004         41.0004
  22452252.0674    1349223.50049   1035570.60447                  22452251.5964
        46.7504         31.2504
  23661394.1484     690433.53949    530591.23447                  23661391.9504
        44.5004         31.5004
  22450774.3134     535111.30549    410298.89647                  22450770.4144
        47.5004         35.0004
  21188562.9834   -1257199.61349   -966020.66348                  21188560.4904
        51.2504         41.0004
 04  7  1 19 56 20.0000000  0  6G11G14G15G19G22G25
  22612641.2674   -1388981.23849  -1067666.42347                  22612638.0974
        47.5004         34.0004
  21174634.6554     593689.13749    455517.65748                  21174631.1234
        50.0004         41.0004
  22457632.1564    1377498.88749   1057603.38347                  22457631.8124
        45.7504         31.5004
  23664096.3484     704633.22349    541655.94347                  23664093.6184
        44.5004         31.7504
  22452803.1794     545772.53949    418606.36147                  22452799.2214
        48.5004         35.5004
  21183458.9094   -1284019.93049   -986919.59948                  21183456.4994
        51.2504         41.2504
 04  7  1 19 56 30.0000000  0  6G11G14G15G19G22G25
  22607096.4744   -1418119.75449  -1090371.75247                  22607092.8944
        46.7504         34.2504
  21176868.7304     605428.07049    464664.87048                  21176865.0394
        49.5004         41.5004
  22463011.0184    1405764.23049   1079628.29347                  22463010.4604
        46.2504         31.7504
  23666795.4704     718820.07849    552710.62047                  23666793.6304
        45.5004         30.7504
  22454828.1904     556413.36749    426897.91447                  22454824.2864
        47.7504         35.2504
  21178357.0324   -1310831.03949  -1007811.35848                  21178354.8434
        51.5004         41.7504
 04  7  1 19 56 40.0000000  0  6G11G14G15G19G22G25
  22601552.3484   -1447255.83649  -1113075.19847                  22601548.5364
        46.5004         34.0004
  21179098.8484     617148.53549    473797.71148                  21179095.2984
        49.5004         42.0004
  22468388.3564    1434018.67649   1101644.69247                  22468387.0304
        46.2504         32.0004
  23669492.7214     732993.25849    563754.62047                  23669490.6324
        44.5004         31.0004
  22456849.3054     567033.00049    435172.91747                  22456844.8124
        46.7504         36.5004
  21173256.7274   -1337633.71149  -1028696.53648                  21173254.1824
        51.0004         41.5004
 04  7  1 19 56 50.0000000  0  6G11G14G15G19G22G25
  22596008.2824   -1476389.46949  -1135776.70847                  22596004.5094
        46.0004         34.0004
  21181325.5984     628850.32449    482915.96748                  21181322.1404
        50.0004         41.2504
  22473762.5474    1462261.96549   1123652.43047                  22473761.5214
        46.0004         31.2504
  23672187.2744     747152.50049    574787.77947                  23672185.1134
        44.5004         30.5004
  22458866.0404     577631.33649    443431.36747                  22458861.7714
        47.0004         36.0004
  21168157.8614   -1364427.96149  -1049575.17448                  21168155.6604
        50.2504         41.7504
 04  7  1 19 57  0.0000000  0  6G11G14G15G19G22G25
  22590464.6334   -1505520.45349  -1158476.15447                  22590461.2744
        46.5004         33.7504
  21183548.7834     640533.59049    492019.80348                  21183545.3804
        51.0004         41.0004
  22479134.9264    1490494.19149   1145651.54747                  22479134.1764
        46.5004         31.5004
  23674879.0444     761297.85549    585810.10847                  23674876.8214
        44.0004         31.0004
  22460878.9894     588208.59049    451673.36947                  22460874.4314
        47.5004         35.5004
  21163060.5624   -1391213.54349  -1070447.04748                  21163058.5244
        50.0004         41.2504
 04  7  1 19 57 10.0000000  0  6G11G14G15G19G22G25
  22584921.5644   -1534649.60549  -1181174.19647                  22584917.9434
        46.0004         33.7504
  21185768.4164     652197.23449    501108.36348                  21185765.0234
        50.0004         41.2504
  22484505.1254    1518714.32449   1167641.21547                  22484504.4724
        46.7504         31.5004
  23677568.3984     775428.27349    596820.79747                  23677565.7974
        44.0004         31.2504
  22462887.5274     598763.81649    459898.19947                  22462883.1384
        47.0004         35.5004
  21157965.0324   -1417991.35249  -1091312.84448                  21157962.7684
        50.7504         40.5004
 04  7  1 19 57 20.0000000  0  6G11G14G15G19G22G25
  22579379.8034   -1563771.91849  -1203866.89947                  22579376.3974
        46.2504         33.0004
  21187985.3774     663846.17249    510185.43548                  21187981.7224
        50.0004         40.0004
  22489874.0794    1546927.21149   1189625.26047                  22489873.1444
        46.2504         31.0004
  23680255.1714     789548.66449    607823.67147                  23680253.0274
        44.7504         30.5004
  22464892.9914     609301.96549    468109.74647                  22464888.4964
        48.0004         34.7504
  21152871.9134   -1444756.35549  -1112168.69648                  21152869.6834
        51.2504         40.5004
 04  7  1 19 57 30.0000000  0  6G11G14G15G19G22G25
  22573839.0854   -1592888.52349  -1226555.14347                  22573835.6634
        45.7504         33.5004
  21190198.8324     675479.03949    519250.02048                  21190195.4544
        49.0004         41.0004
  22495241.3914    1575131.51649   1211602.62547                  22495240.4514
        46.2504         32.0004
  23682939.8904     803657.60249    618817.63247                  23682937.9214
        44.2504         31.5004
  22466894.6944     619821.84049    476307.04647                  22466890.0234
        48.2504         36.0004
  21147780.5364   -1471509.72349  -1133015.45548                  21147778.4004
        51.2504         41.5004
 04  7  1 19 57 40.0000000  0  6G11G14G15G19G22G25
  22568300.1454   -1621996.76649  -1249236.88847                  22568296.1964
        45.5004         33.5004
  21192409.9274     687098.46549    528304.11648                  21192406.2954
        49.5004         41.2504
  22500607.1344    1603329.87549   1233575.32347                  22500606.5734
        46.5004         32.7504
  23685623.1584     817757.65249    629804.66047                  23685621.2954
        43.7504         30.5004
  22468893.2084     630326.08649    484492.14747                  22468888.9404
        47.7504         36.7504
  21142692.8084   -1498248.74249  -1153851.03648                  21142690.5364
        50.7504         41.7504
 04  7  1 19 57 50.0000000  0  6G11G14G15G19G22G25
  22562761.3384   -1651101.33249  -1271915.74647                  22562757.7444
        46.0004         33.7504
  21194617.3814     698699.68449    537344.01248                  21194613.8844
        49.7504         41.2504
  22505971.1064    1631517.40249   1255539.60947                  22505970.6784
        46.2504         32.0004
  23688303.9244     831843.96149    640780.97747                  23688301.5534
        43.5004         31.0004
  22470888.6394     640810.00849    492661.42947                  22470884.3424
        47.5004         37.0004
  21137606.3974   -1524978.12949  -1174679.13248                  21137603.9554
        52.0004         42.7504
 04  7  1 19 58  0.0000000  0  6G11G14G15G19G22G25
  22557224.0834   -1680199.08649  -1294589.33547                  22557220.5344
        45.7504         33.7504
  21196822.3314     710285.59449    546372.00048                  21196818.3004
        49.7504         41.0004
  22511333.8074    1659696.99249   1277497.68547                  22511332.4604
        46.7504         31.0004
  23690982.4784     845919.37949    651748.79547                  23690980.2274
        44.5004         30.5004
  22472879.8654     651276.67649    500817.24347                  22472875.9234
        47.5004         36.0004
  21132522.2664   -1551694.74249  -1195497.24848                  21132519.6674
        50.7504         42.2504
 04  7  1 19 58 10.0000000  0  6G11G14G15G19G22G25
  22551689.3914   -1709287.27049  -1317255.43947                  22551685.6204
        46.7504         33.5004
  21199024.5004     721858.87149    555390.11948                  21199021.0674
        50.0004         41.0004
  22516695.4904    1687871.21949   1299451.61547                  22516694.5834
        46.7504         31.5004
  23693659.2484     859986.47749    662710.15247                  23693656.7604
        44.0004         30.2504
  22474869.3314     661728.61349    508961.60947                  22474864.8284
        48.2504         35.5004
  21127441.2774   -1578395.90649  -1216303.33748                  21127438.8074
        50.5004         42.0004
 04  7  1 19 58 20.0000000  0  6G11G14G15G19G22G25
  22546156.4934   -1738362.88749  -1339911.73547                  22546152.1544
        45.7504         33.5004
  21201224.9684     733422.35549    564400.62248                  21201221.6144
        50.0004         41.0004
  22522056.6674    1716042.95749   1321403.59747                  22522055.3104
        46.7504         32.0004
  23696334.8224     874048.10249    673667.26247                  23696333.0224
        43.5004         30.5004
  22476855.6474     672168.90249    517096.88247                  22476851.7754
        46.7504         35.5004
  21122363.7854   -1605078.56249  -1237095.01448                  21122361.4604
        51.7504         42.0004
 04  7  1 19 58 30.0000000  0  6G11G14G15G19G22G25
  22540624.2344   -1767435.44549  -1362565.68347                  22540620.0504
        45.5004         33.0004
  21203422.1314     744966.37149    573395.95648                  21203418.9274
        49.5004         39.7504
  22527414.5594    1744202.50849   1343346.06647                  22527413.6604
        47.0004         31.5004
  23699007.7214     888094.59049    684612.54147                  23699005.6094
        42.7504         29.7504
  22478838.0954     682587.91449    525215.58247                  22478834.3884
        47.2504         34.0004
  21117287.4734   -1631752.19149  -1257879.65148                  21117285.3594
        52.0004         41.0004
 04  7  1 19 58 40.0000000  0  6G11G14G15G19G22G25
  22535093.0114   -1796499.01649  -1385212.59847                  22535089.5904
        46.7504         33.5004
  21205615.6504     756496.65649    582380.58348                  21205612.7094
        48.2504         40.5004
  22532771.8654    1772355.62149   1365283.52347                  22532771.2094
        46.7504         32.2504
  23701679.1814     902131.66849    695550.51047                  23701676.9094
        43.5004         31.0004
  22480818.2704     692991.53949    533322.27947                  22480813.7684
        48.2504         35.0004
  21112214.9574   -1658410.93449  -1278652.67748                  21112212.6014
        51.0004         42.0004
 04  7  1 19 58 50.0000000  0  6G11G14G15G19G22G25
  22529564.3924   -1825552.27349  -1407851.50547                  22529561.0424
        46.0004         33.5004
  21207807.6994     768014.40649    591355.46048                  21207804.2234
        49.0004         41.0004
  22538128.4544    1800503.46149   1387216.88047                  22538127.4994
        46.7504         31.7504
  23704348.1504     916160.48049    706482.02047                  23704346.8064
        42.7504         30.7504
  22482795.0644     703381.05149    541417.99047                  22482790.8064
        48.0004         34.5004
  21107144.8624   -1685053.48849  -1299413.09148                  21107142.7174
        51.2504         42.2504
 04  7  1 19 59  0.0000000  0  6G11G14G15G19G22G25
  22524036.7914   -1854600.05949  -1430486.12747                  22524033.8944
        47.0004         34.0004
  21209996.0554     779514.64849    600316.68148                  21209992.9624
        48.5004         41.7504
  22543482.8784    1828641.01649   1409142.22147                  22543481.9214
        46.7504         33.0004
  23707015.5594     930175.89549    717403.08247                  23707013.7494
        41.7504         30.5004
  22484768.5894     713751.48849    549498.82047                  22484764.8074
        46.7504         35.2504
  21102077.2974   -1711684.84449  -1320164.78448                  21102074.6124
        51.2504         42.7504
 04  7  1 19 59 10.0000000  0  6G11G14G15G19G22G25
  22518510.4784   -1883643.64149  -1453117.48847                  22518506.5754
        47.2504         33.5004
  21212181.0744     790996.06349    609263.22948                  21212177.7504
        49.5004         40.7504
  22548834.7734    1856766.87549   1431058.44847                  22548833.6854
        47.2504         32.2504
  23709679.9874     944176.50849    728312.64547                  23709677.6684
        43.0004         31.0004
  22486737.9824     724101.50049    557563.76347                  22486734.3474
        48.2504         35.2504
  21097011.2304   -1738306.12949  -1340908.63848                  21097008.8984
        51.2504         42.2504
 04  7  1 19 59 20.0000000  0  6G11G14G15G19G22G25
  22512984.8544   -1912679.44149  -1475742.78347                  22512981.2724
        46.2504         33.2504
  21214363.0804     802462.10549    618197.80248                  21214359.8054
        48.2504         41.0004
  22554185.5524    1884884.48849   1452968.23647                  22554185.2594
        47.0004         32.0004
  23712342.8194     958165.80549    739213.35547                  23712340.1614
        42.2504         31.0004
  22488705.0254     734434.71949    565615.61047                  22488700.4514
        48.0004         35.2504
  21091948.0764   -1764913.70749  -1361641.79948                  21091945.6914
        51.7504         42.0004
 04  7  1 19 59 30.0000000  0  6G11G14G15G19G22G25
  22507461.0324   -1941707.28149  -1498361.86947                  22507457.3954
        45.7504         34.2504
  21216542.0734     813912.79749    627120.42348                  21216538.4174
        48.7504         40.5004
  22559534.7214    1912993.87149   1474871.62247                  22559534.1764
        46.7504         32.2504
  23715002.3244     972143.78149    750105.27747                  23715000.5194
        42.0004         30.0004
  22490667.7544     744751.24649    573654.43047                  22490663.9774
        48.2504         35.2504
  21086887.4384   -1791507.36749  -1382364.10348                  21086884.8964
        51.5004         42.2504
 04  7  1 19 59 40.0000000  0  6G11G14G15G19G22G25
  22501938.9994   -1970727.37949  -1520974.92147                  22501934.7784
        46.0004         34.0004
  21218717.9614     825347.65649    636030.69048                  21218714.8864
        48.5004         40.2504
  22564882.1044    1941094.59049   1496768.25047                  22564881.1644
        47.5004         32.0004
  23717660.0594     986109.98849    760987.99347                  23717657.8454
        42.2504         30.0004
  22492627.8844     755050.72349    581679.99447                  22492623.8514
        48.7504         34.5004
  21081829.2444   -1818087.46149  -1403075.86748                  21081827.0094
        51.5004         41.0004
 04  7  1 19 59 50.0000000  0  6G11G14G15G19G22G25
  22496418.6384   -1999735.39149  -1543578.56947                  22496415.1174
        47.5004         34.7504
  21220891.8204     836770.93849    644931.94748                  21220888.5064
        49.2504         41.0004
  22570228.8524    1969190.88349   1518661.43847                  22570228.2524
        47.2504         32.5004
  23720315.7994    1000068.59049    771864.80147                  23720314.3154
        42.5004         30.7504
  22494585.8754     765337.55549    589695.70147                  22494581.3904
        48.7504         35.2504
  21076774.7414   -1844649.51649  -1423773.56048                  21076772.1404
        52.0004         41.7504
 04  7  1 20  0  0.0000000  0  6G11G14G15G19G22G25
  22490900.1734   -2028734.25449  -1566175.06547                  22490896.2184
        46.5004         33.7504
  21223062.6924     848179.53549    653821.75348                  21223059.3864
        49.2504         41.0004
  22575573.1664    1997279.58649   1540548.70147                  22575572.9024
        47.5004         32.2504
  23722970.0974    1014016.45349    782733.22947                  23722968.1104
        41.7504         30.0004
  22496540.0894     775608.58649    597699.09247                  22496535.8464
        48.5004         35.5004
  21071722.8064   -1871196.66049  -1444459.62548                  21071720.0584
        52.0004         41.7504
 04  7  1 20  0 10.0000000  0  6G11G14G15G19G22G25
  22485384.4504   -2057721.94949  -1588762.87947                  22485380.1944
        47.0004         34.5004
  21225231.3404     859575.38349    662701.63748                  21225228.0504
        49.2504         41.0004
  22580917.8854    2025362.57049   1562431.51547                  22580917.2164
        46.5004         32.7504
  23725622.3624    1027955.39549    793594.73647                  23725620.5884
        40.2504         30.0004
  22498491.7364     785865.87149    605691.76247                  22498488.1364
        48.2504         35.5004
  21066674.3184   -1897726.84449  -1465132.47748                  21066671.9204
        51.2504         42.5004
 04  7  1 20  0 20.0000000  0  6G11G14G15G19G22G25
  22479870.9514   -2086694.71949  -1611339.04847                  22479866.9984
        47.2504         34.0004
  21227397.8904     870962.04349    671574.34648                  21227394.6404
        49.5004         41.0004
  22586261.4484    2053443.35549   1584312.60347                  22586261.0104
        47.0004         32.7504
  23728273.8944    1041888.94549    804452.00947                  23728272.1074
        41.7504         30.5004
  22500441.4574     796113.03549    613676.55747                  22500437.6934
        48.5004         35.2504
  21061629.9934   -1924236.32849  -1485789.20348                  21061627.3224
        52.0004         43.0004
 04  7  1 20  0 30.0000000  0  6G11G14G15G19G22G25
  22474358.7344   -2115660.53149  -1633909.80547                  22474354.9694
        46.2504         33.5004
  21229561.6034     882331.44549    680433.60748                  21229558.3544
        49.0004         41.0004
  22591602.6744    2081513.80949   1606185.67847                  22591602.2604
        46.5004         32.0004
  23730922.7874    1055809.01249    815298.79847                  23730921.0454
        41.7504         30.5004
  22502388.1934     806342.09449    621647.23447                  22502384.8274
        49.0004         35.0004
  21056587.8604   -1950733.03949  -1506436.00048                  21056585.4234
        51.7504         42.7504
 04  7  1 20  0 40.0000000  0  6G11G14G15G19G22G25
  22468848.2204   -2144618.60249  -1656474.55047                  22468844.2904
        47.0004         33.5004
  21231722.1824     893684.26249    689279.95848                  21231718.8514
        49.2504         40.7504
  22596942.2854    2109574.61749   1628051.19447                  22596942.5814
        46.5004         32.0004
  23733569.8104    1069716.15649    826135.50447                  23733567.2034
        43.0004         29.5004
  22504331.5804     816553.76249    629604.34547                  22504327.7564
        48.7504         34.7504
  21051548.3314   -1977216.23049  -1527072.22648                  21051545.6094
        51.2504         42.2504
 04  7  1 20  0 50.0000000  0  6G11G14G15G19G22G25
  22463339.7474   -2173565.47749  -1679030.53947                  22463335.9634
        46.5004         32.7504
  21233879.8554     905023.77349    698115.93048                  21233876.3354
        49.2504         39.7504
  22602281.6514    2137629.02349   1649911.73747                  22602280.5164
        46.2504         31.5004
  23736213.9004    1083613.71549    836964.73947                  23736211.7274
        41.7504         29.7504
  22506271.8074     826751.45349    637550.59447                  22506268.2374
        48.2504         34.2504
  21046511.7314   -2003682.54349  -1547695.32248                  21046509.6744
        52.0004         41.7504
 04  7  1 20  1  0.0000000  0  6G11G14G15G19G22G25
  22457834.3034   -2202495.84849  -1701573.67447                  22457830.5184
        47.7504         33.7504
  21236036.0354     916355.20749    706945.61048                  21236033.0644
        49.5004         41.0004
  22607619.7994    2165682.22349   1671771.34647                  22607619.0144
        46.7504         31.5004
  23738857.8174    1097506.78549    847790.47347                  23738856.0094
        41.0004         29.7504
  22508210.8934     836940.45349    645490.06947                  22508207.2694
        48.5004         34.5004
  21041479.6474   -2030126.56249  -1568301.04448                  21041477.1844
        51.7504         42.2504
 04  7  1 20  1 10.0000000  0  6G11G14G15G19G22G25
  22452331.2254   -2231415.24249  -1724108.25147                  22452327.5584
        47.5004         34.0004
  21238189.9134     927672.81649    715764.53248                  21238186.1284
        50.0004         40.5004
  22612956.8074    2193728.44949   1693625.52247                  22612956.1204
        46.7504         31.2504
  23741499.7574    1111389.64549    858608.27147                  23741497.7094
        41.2504         30.0004
  22510147.0484     847115.05549    653418.31447                  22510143.4294
        48.0004         34.5004
  21036450.7324   -2056553.86349  -1588893.72848                  21036448.2624
        52.5004         42.5004
 04  7  1 20  1 20.0000000  0  6G11G14G15G19G22G25
  22446830.9184   -2260321.10249  -1746632.30247                  22446827.0904
        48.0004         34.0004
  21240341.0894     938978.98049    724574.52548                  21240338.4584
        49.2504         41.2504
  22618293.2154    2221770.06349   1715476.12247                  22618292.2084
        46.2504         31.5004
  23744140.1214    1125264.55949    869419.87047                  23744137.9994
        41.5004         29.5004
  22512080.5074     857277.76249    661337.31047                  22512077.4944
        47.2504         35.0004
  21031425.2504   -2082961.96149  -1609471.45848                  21031422.8564
        51.2504         43.2504
